Regional Weather Roundup
Issued by NWS

Current Version | Previous Version | Text Only | Print | Product List | Glossary On
Versions: 1 2 3 4 5 6 7 8 9 10 11 12 13 14 15 16 17 18 19 20 21 22 23 24 25 26 27 28 29 30 31 32 33 34 35 36 37 38 39 40 41 42 43 44 45 46 47 48 49 50
368
ASUS46 KPQR 291910
RWROR

OREGON REGIONAL WEATHER ROUNDUP
NATIONAL WEATHER SERVICE PORTLAND OR
1200 PM PDT SUN MAY 29 2016

NOTE: "FAIR" INDICATES FEW OR NO CLOUDS BELOW 12,000 FEET WITH
NO SIGNIFICANT WEATHER AND/OR OBSTRUCTIONS TO VISIBILITY.

ORZ001>013-292000-
NORTHWEST OREGON


CITY           SKY/WX    TMP DP  RH WIND       PRES   REMARKS
ASTORIA        CLOUDY    59  50  72 NW10      30.18R
NEWPORT        PTSUNNY   61  50  67 NW8       30.21S
PORTLAND       PTSUNNY   64  45  49 VRB6      30.15S
VANCOUVER WA   CLOUDY    63  46  54 W7        30.15S
SCAPPOOSE      CLOUDY    63  45  51 E5        30.14S
HILLSBORO      CLOUDY    64  44  48 NW6       30.15S
AURORA         CLOUDY    62  47  57 VRB5      30.17R
MCMINNVILLE    CLOUDY    65  46  50 NE5       30.16S
SALEM          CLOUDY    63  47  55 CALM      30.15S
CORVALLIS        N/A     66  48  52 W9        30.17S
EUGENE         PTSUNNY   65  48  54 VRB6      30.15S
$$

ORZ021-028-292000-
SOUTHWEST OREGON


CITY           SKY/WX    TMP DP  RH WIND       PRES   REMARKS
NORTH BEND     CLOUDY    63  52  67 N12G18    30.19S
BROOKINGS      PTSUNNY   61  50  67 S3        30.10R
ROSEBURG       PTSUNNY   65  49  56 CALM      30.14S
SEXTON SUMMIT  PTSUNNY   58  44  60 CALM      30.15R
MEDFORD        PTSUNNY   70  44  39 N7        30.09S
$$

ORZ014>016-041-292000-
COLUMBIA GORGE


CITY           SKY/WX    TMP DP  RH WIND       PRES   REMARKS
TROUTDALE      CLOUDY    62  48  60 CALM      30.15S
THE DALLES     SUNNY     70  44  39 NW20G31   30.05S
$$

ORZ029>031-041-044-049-050-061>064-502-503-505>511-292000-
EASTERN OREGON


CITY           SKY/WX    TMP DP  RH WIND       PRES   REMARKS
REDMOND        SUNNY     70  34  26 N10       30.06S
BEND           SUNNY     64  36  34 E5        30.06F
PRINEVILLE     SUNNY     66  39  37 VRB5G13   30.07S
KLAMATH FALLS  PTSUNNY   67  34  29 VRB3      30.10S
LAKEVIEW       MOSUNNY   66  43  42 SE9       30.12S
HERMISTON      SUNNY     74  43  32 SW16      30.00F
PENDLETON      MOSUNNY   71  43  36 W16       30.01F
JOHN DAY         N/A    N/A N/A N/A MISG        N/A
MEACHAM        PTSUNNY   61  40  45 VRB5      30.06F
LA GRANDE      SUNNY     70  39  32 NE5       30.00F
BAKER CITY     MOSUNNY   67  40  37 CALM      30.02F
BURNS          PTSUNNY   67  37  33 S10       30.06F
ROME             N/A     78  26  14 S8G21     30.01F
ONTARIO        PTSUNNY   71  40  32 VRB3      30.01F
$$




USA.gov is the U.S. government's official web portal to all federal, state and local government web resources and services.